Preview of NWS' New Version of Forecast
This preview is not operational and should not be used for support decisions.

Regional Weather Roundup (RWR)

Issued by National Weather Service (NWS)

                            
000
ASUS46 KSEW 181210
RWRWA 

WASHINGTON REGIONAL WEATHER ROUNDUP
NATIONAL WEATHER SERVICE SEATTLE WA
400 AM PST MON FEB 18 2019

NOTE:"FAIR" INDICATES FEW OR NO CLOUDS BELOW 12,000 FEET WITH NO 
SIGNIFICANT WEATHER AND/OR OBSTRUCTIONS TO VISIBILITY.

WAZ507-509-555>559-181300-
SEATTLE, TACOMA, EVERETT, AND VICINITY
  
CITY           SKY/WX    TMP DP  RH WIND       PRES   REMARKS
EVERETT        MOCLDY    33  31  92 E3        30.34S                  
6HR MIN TEMP:  32; 6HR MAX TEMP:  37;                                

BOEING FIELD   CLOUDY    36  33  89 SE6       30.37S                  
6HR MIN TEMP:  33; 6HR MAX TEMP:  36;                                

RENTON         CLOUDY    35  32  88 SE3       30.37S                  
6HR MIN TEMP:  34; 6HR MAX TEMP:  36;                                

SEATAC AIRPORT CLOUDY    36  32  85 SE7       30.35S                  
6HR MIN TEMP:  35; 6HR MAX TEMP:  38;                                

JBLM-MCCHORD   CLOUDY    34  34 100 CALM      30.36S                  
6HR MIN TEMP:  31; 6HR MAX TEMP:  33;                                

PUYALLUP       CLOUDY    34  34 100 CALM      30.35S FOG              
BREMERTON      CLOUDY    32  32 100 CALM      30.35  FOG              
6HR MIN TEMP:  29; 6HR MAX TEMP:  33;                                

JBLM-FT LEWIS  NOT AVBL                                               
TACOMA NARROWS LGT RAIN  36  36 100 S3        30.35F                  
6HR MIN TEMP:  31; 6HR MAX TEMP:  37; 6HR PCP: TRACE;                

$$
 
WAZ001-503-506-510-514-515-181300-
NORTH INTERIOR
  
CITY           SKY/WX    TMP DP  RH WIND       PRES   REMARKS
BELLINGHAM     CLEAR     28  17  63 N5        30.37R                  
6HR MIN TEMP:  26; 6HR MAX TEMP:  34;                                

FRIDAY HARBOR  CLEAR     32  20  61 NW3       30.37S                  
6HR MIN TEMP:  30; 6HR MAX TEMP:  37;                                

EASTSOUND      CLEAR     36  21  55 VRB3      30.37R                  
PORT ANGELES   CLOUDY    35  33  92 SW5       30.36F                  
6HR MIN TEMP:  34; 6HR MAX TEMP:  38; 6HR PCP:  0.01;                

EDIZ HOOK      CLOUDY    39  31  73 SE3       30.37S                  
6HR MIN TEMP:  39; 6HR MAX TEMP:  41; 6HR PCP:  0.01;                

PORT TOWNSEND  CLOUDY    28  28 100 CALM      30.35S                  
NAS WHIDBEY    NOT AVBL                                               
ARLINGTON      NOT AVBL                                               
BURLINGTON     MOCLDY    30  25  80 NE7       30.37S                  
$$
 
WAZ020-022-039-040-504-511-512-181300-
SOUTHWEST INTERIOR
  
CITY           SKY/WX    TMP DP  RH WIND       PRES   REMARKS
SHELTON        CLOUDY    29  27  92 CALM      30.34S                  
6HR MIN TEMP:  26; 6HR MAX TEMP:  34;                                

OLYMPIA        CLOUDY    31  29  92 S3        30.36S                  
6HR MIN TEMP:  26; 6HR MAX TEMP:  31;                                

CHEHALIS       CLOUDY    32  32 100 SW6       30.37S                  
KELSO          CLOUDY    31  31 100 CALM      30.40R                  
6HR MIN TEMP:  28; 6HR MAX TEMP:  32;                                

VANCOUVER      MOCLDY    28  26  92 CALM      30.39R                  
6HR MIN TEMP:  27; 6HR MAX TEMP:  33;                                

SCAPPOOSE, OR  FOG       32  29  88 NW3       30.39R VSB 1/4          
6HR MIN TEMP:  29; 6HR MAX TEMP:  33;                                

PORTLAND, OR   PTCLDY    29  27  92 CALM      30.39S FOG              
6HR MIN TEMP:  28; 6HR MAX TEMP:  37;                                

$$
 
WAZ021-516-517-181300-
WASHINGTON COAST
  
CITY           SKY/WX    TMP DP  RH WIND       PRES   REMARKS
FORKS          CLOUDY    31  29  92 CALM      30.35S                  
6HR MIN TEMP:  29; 6HR MAX TEMP:  31;                                

HOQUIAM        PTCLDY    31  30  96 CALM      30.36S                  
6HR MIN TEMP:  28; 6HR MAX TEMP:  36;                                

ASTORIA, OR    MOCLDY    32  31  96 CALM      30.37S                  
6HR MIN TEMP:  30; 6HR MAX TEMP:  33;                                

$$
 
WAZ019-023-024-040-567>569-181300-
CASCADE MOUNTAINS AND COLUMBIA GORGE
  
CITY           SKY/WX    TMP DP  RH WIND       PRES   REMARKS
STAMPEDE PASS  FOG       23  21  92 VRB3      30.17S VSB 1/2          
6HR MIN TEMP:  22; 6HR MAX TEMP:  25;                                

TROUTDALE, OR  CLOUDY    33  32  96 CALM      30.38S                  
6HR MIN TEMP:  32; 6HR MAX TEMP:  40;                                

HOOD RIVER, OR PTSUNNY   32  30  93 CALM      30.36R FOG              
THE DALLES, OR CLOUDY    33  31  92 CALM      30.37S FOG              
6HR MIN TEMP:  32; 6HR MAX TEMP:  34; 6HR PCP: TRACE;                

$$

WAZ026-027-041>044-520-521-181300-
EAST SLOPES
  
CITY           SKY/WX    TMP DP  RH WIND       PRES   REMARKS
OMAK           CLEAR     18   9  68 NW9G17    30.35R                  
6HR MIN TEMP:  18; 6HR MAX TEMP:  27;                                

WENATCHEE      MOCLDY    19  12  74 E5        30.33R                  
6HR MIN TEMP:  16; 6HR MAX TEMP:  30;                                

ELLENSBURG     CLOUDY    27  20  75 E5        30.29S                  
6HR MIN TEMP:  25; 6HR MAX TEMP:  30; 6HR PCP: TRACE;                

YAKIMA         CLOUDY    25  23  92 W5        30.34S FOG              
6HR MIN TEMP:  25; 6HR MAX TEMP:  32; 6HR PCP:  0.01;                

SUNNYSIDE ARPT CLOUDY    24  19  81 NE5       30.36                   
6HR MIN TEMP:  24; 6HR MAX TEMP:  33;                                

YAKIMA TC      PTSUNNY   24  20  83 CALM      30.30S                  
6HR MIN TEMP:  24; 6HR MAX TEMP:  30;                                

$$

WAZ028-034-035-181300-
COLUMBIA BASIN
  
CITY           SKY/WX    TMP DP  RH WIND       PRES   REMARKS
EPHRATA        CLEAR     13   6  74 CALM      30.33S                  
6HR MIN TEMP:  13; 6HR MAX TEMP:  23;                                

MOSES LAKE     CLEAR    N/A N/A N/A NW3       30.34S                  
PASCO          CLOUDY    25  21  85 CALM      30.39R                  
6HR MIN TEMP:  25; 6HR MAX TEMP:  30;                                

RICHLAND ARPT  PTSUNNY   24  19  83 NW5       30.39S                  
6HR MIN TEMP:  22; 6HR MAX TEMP:  32;                                

HERMISTON, OR  PTCLDY    26  17  68 N7        30.36R                  
6HR MIN TEMP:  26; 6HR MAX TEMP:  33;                                

$$

WAZ036>038-181300-
NORTHEAST WASHINGTON
  
CITY           SKY/WX    TMP DP  RH WIND       PRES   REMARKS
SPOKANE GEIGER PTCLDY    13   2  61 E5        30.25S                  
6HR MIN TEMP:   8; 6HR MAX TEMP:  16;                                

SPOKANE FELTS  CLEAR     10   6  84 CALM      30.29S                  
6HR MIN TEMP:   9; 6HR MAX TEMP:  19;                                

FAIRCHILD AFB  CLEAR      8  -1  68 E3        30.23S                  
6HR MIN TEMP:   8; 6HR MAX TEMP:  17;                                

COEURDALENE,ID CLEAR      6   1  80 NE9       30.26S                  
6HR MIN TEMP:   6; 6HR MAX TEMP:  15;                                

DEER PARK      MOCLDY     1  -3  83 CALM      30.27F                  
6HR MIN TEMP:  -2; 6HR MAX TEMP:  13;                                

$$

WAZ029>033-181300-
SOUTHEAST WASHINGTON
  
CITY           SKY/WX    TMP DP  RH WIND       PRES   REMARKS
PULLMAN        CLEAR     10   5  80 NW7       30.21R                  
6HR MIN TEMP:  10; 6HR MAX TEMP:  23;                                

LEWISTON, ID   PTCLDY    22  14  71 W6        30.27R                  
6HR MIN TEMP:  22; 6HR MAX TEMP:  30; 6HR PCP:  0.01;                

WALLA WALLA    CLOUDY    27  22  81 S9        30.31R                  
6HR MIN TEMP:  25; 6HR MAX TEMP:  32; 6HR PCP: TRACE;                

PENDLETON, OR  CLOUDY    25  23  92 NW8       30.29R                  
6HR MIN TEMP:  25; 6HR MAX TEMP:  30;                                

$$